Regional Weather Roundup
Issued by NWS Austin/San Antonio, TX

Current Version | Previous Version | Text Only | Print | Product List | Glossary On
Versions: 1 2 3 4 5 6 7 8 9 10 11 12 13 14 15 16 17 18 19 20 21 22 23 24 25 26 27 28 29 30 31 32 33 34 35 36 37 38 39 40 41 42 43 44 45 46 47 48 49 50
000
ASUS44 KEWX 051002
RWREWX
SOUTH TEXAS REGIONAL WEATHER ROUNDUP
NATIONAL WEATHER SERVICE AUSTIN/SAN ANTONIO TX
500 AM CDT SUN JUL 05 2020

NOTE: "FAIR" INDICATED FEW OR NO CLOUDS BELOW 12,000 FEET WITH NO
SIGNIFICANT WEATHER AND/OR OBSTRUCTIONS TO VISIBILITY.

* - THESE STATIONS ARE NOT NWS OR FAA STATIONS...AND ARE NOT SUBJECT
    TO NWS AND FAA QUALITY CONTROL.

TXZ171-172-183>190-051100-
TEXAS HILL COUNTRY AND EDWARDS PLATEAU

CITY           SKY/WX    TMP DP  RH WIND       PRES   REMARKS
JUNCTION       CLEAR     77  67  71 CALM      29.93R
*LLANO         CLEAR     73  66  78 CALM      29.91S
BURNET         CLEAR     76  67  73 SW3       29.91S
*HORSESHOE BAY CLEAR     81  70  69 SW3       29.88S
*LAGO VISTA    PTCLDY    78  70  75 SW6       29.90R
*KERRVILLE     CLEAR     74  69  85 CALM      29.94R
*FREDERICKSBRG CLEAR     74  68  81 CALM      29.93S
*ROCKSPRINGS   CLEAR     75  70  83 S9        30.00R
*BOERNE        CLEAR     73  70  88 SW5       29.93R
*CASTROVILLE   CLEAR     77  71  80 MISG      29.91R
HONDO          CLEAR     76  70  82 CALM      29.90R
*UVALDE          N/A     74  73  96 NE6       29.91R
DEL RIO        CLEAR     82  63  52 NE9       29.86R
*LAUGHLIN AFB  NOT AVBL
*SPOFFORD      NOT AVBL
*EAGLE PASS    NOT AVBL
CARRIZO SPRGS  CLEAR     79  64  61 SE3       29.84S
$$

TXZ173-191>194-202-209-217>225-228-051100-
CENTRAL AND SOUTH CENTRAL TEXAS

CITY           SKY/WX    TMP DP  RH WIND       PRES   REMARKS
GEORGETOWN     PTCLDY    79  71  76 S9        29.88S
*TAYLOR        PTCLDY    74  71  89 S6        29.87R
AUSTIN/BERGSTM PTCLDY    73  71  93 S3        29.87R
AUSTIN/MABRY   PTCLDY    76  70  82 CALM      29.88R
*PFLUGERVILLE  PTCLDY    73  72  94 S5        29.88R
SAN MARCOS     CLEAR     74  72  93 S5        29.89R
NEW BRAUNFELS  CLEAR     74  69  85 SW6       29.87S
*RANDOLPH AFB  CLEAR     76  72  86 S5        29.89R
*SEGUIN        NOT AVBL
SAN ANTONIO    CLEAR     79  71  76 SW8       29.89R
STINSON FIELD  CLEAR     74  73  97 CALM      29.86R
*KELLY FIELD   CLEAR     76  72  88 CALM      29.87R
*PLEASANTON    CLEAR     75  73  94 CALM      29.88R
*KENEDY        CLEAR     76  74  94 S3        29.88R
*LA GRANGE     MOCLDY    78  78 100 SW6       29.86R
*GIDDINGS      CLEAR     77  74  91 SW6       29.89R
*GONZALES      CLOUDY    76  76 100 S6        29.87R
$$

TXZ163>164-176>182-195>201-210>213-226-227-235-051100-
SOUTHEAST TEXAS

CITY           SKY/WX    TMP DP  RH WIND       PRES   REMARKS
COLLEGE STN    CLEAR     76  73  91 S5        29.87R
*BRYAN         CLEAR     77  75  93 S5        29.88R
*CALDWELL      CLEAR     75  74  97 S5        29.87R
*CROCKETT      NOT AVBL
*BRENHAM       CLEAR     77  75  93 SW5       29.88R
HUNTSVILLE     CLEAR     78  73  84 S6        29.88R
CONROE         CLEAR     78  75  90 SW6       29.88R
HOUSTON BUSH   PTCLDY    79  74  84 CALM      29.88R
HOUSTON HOBBY  CLEAR     78  75  90 W6        29.87R
*HOUSTON SW AP FOG       73  73 100 CALM      29.88R VSB 1/2
PEARLAND       CLEAR     78  74  87 W3        29.89R
HOUSTON HOOKS  CLEAR     78  73  84 SW5       29.88R
ELLINGTON FLD  PTCLDY    79  75  89 SW3       29.87R
SUGAR LAND     CLEAR     77  75  93 CALM      29.88R
*HOUSTON EXEC    N/A     77  77 100 SW5       29.89R
*CLEVELAND MUN CLEAR     77  75  94 CALM      29.88R FOG
*WHARTON       CLEAR     74  72  93 CALM      29.88S
*COLUMBUS      CLOUDY    76  75  96 SW6       29.89R
*EAGLE LAKE    CLOUDY    79  78  95 S5        29.87
$$

TXZ214>216-236>238-051100-
THE UPPER TEXAS COAST

CITY           SKY/WX    TMP DP  RH WIND       PRES   REMARKS
*ORANGE        CLEAR     81  77  88 SW5       29.87R
PORT ARTHUR    CLEAR     77  77 100 W5        29.86R
GALVESTON      PTCLDY    82  77  84 SW7       29.87R HX  90
ANGLETON       CLEAR     77  74  90 S3        29.87R
*BAY CITY      CLEAR     77  77  99 SW3       29.87R
PALACIOS       PTCLDY    83  75  77 SW12      29.86S HX  90
$$

TXZ229>234-239>247-051100-
TEXAS COASTAL BEND AND RIO GRANDE PLAINS

CITY           SKY/WX    TMP DP  RH WIND       PRES   REMARKS
VICTORIA       PTCLDY    78  75  90 S7        29.86S
*BEEVILLE      CLOUDY    78  78 100 S10       29.85S
ROCKPORT         N/A     80  75  84 VRB7      29.86R
*PORT ARANSAS  PTCLDY    80  77  89 S13       29.88R
*PORT LAVACA   CLEAR     79  77  92 SW9       29.87R
*INGLESIDE     PTCLDY    82  78  89 SW8G18    29.86R HX  90
CORPUS CHRISTI CLEAR     76  75  97 S7        29.86R
CORPUS NAS     PTCLDY    78  78 100 S8        29.86R
*ROBSTOWN      CLEAR     75  73  92 S7        29.87R
ALICE          CLEAR     76  74  93 S6        29.85S
KINGSVILLE NAS CLEAR     77  75  93 S7        29.85F
COTULLA        CLEAR     78  72  81 S5        29.85S
LAREDO         CLEAR     78  74  87 SE13      29.84F
$$

TXZ248>255-051100-
DEEP SOUTH TEXAS

CITY           SKY/WX    TMP DP  RH WIND       PRES   REMARKS
BROWNSVILLE    CLEAR     78  76  93 S8        29.87F
PORT ISABEL    PTCLDY    79  75  87 S8        29.86F
HARLINGEN      CLEAR     78  76  93 S9        29.86S
*HEBBRONVILLE  MOCLDY    72  71  96 CALM      29.88S FOG
MCALLEN        MOCLDY    79  75  87 SE10      29.86F
*WESLACO       CLOUDY    77  74  91 S9        29.85F
FALFURRIAS     NOT AVBL
EDINBURG       MOCLDY    78  75  90 S8        29.87S
*ZAPATA        CLEAR     79  75  85 SE7       29.85F
$$

TXZ213>215-236>238-242>244-246-247-251-254-255-051100-
CMAN STATIONS

STATION/POSITION TIME  TEMP    WIND        PRES    WAVE
                       AIR SEA DIR/SP/G            HT/PER
                 (UTC) (F)     (DEG/KT/KT) (MB)    (FT/S)
SABINE PASS      0930   81 88  260/  2/  5 1012.7
NORTH JETTY/GLS  0930   85 85  230/ 10/ 12 1010.0
EAGLE POINT      0930   80 87  230/  5/  7 1010.8
MORGANS POINT    0930   80 87  240/  6/  9 1011.2
PORT O`CONNOR    0930   81 88  200/ 10/ 13 1010.8
PORT ARANSAS     0900   80 82  180/ 15/ 17 1010.8
MALAQUITE BEACH  0930   81     170/ 15/ 17   N/A
BAFFIN BAY       0930   81 85  170/ 16/ 19 1011.3
PORT ISABEL      0930   80 84  180/  8/ 12 1013.3
$$



USA.gov is the U.S. government's official web portal to all federal, state and local government web resources and services.